Regional Weather Roundup
Issued by NWS

Home | Current Version | Previous Version | Graphics & Text | Print | Product List | Glossary On
Versions: 1 2 3 4 5 6 7 8 9 10 11 12 13 14 15 16 17 18 19 20 21 22 23 24 25 26 27 28 29 30 31 32 33 34 35 36 37 38 39 40 41 42 43 44 45 46 47 48
000
ASUS45 KBOU 221607
RWRCO

WEATHER ROUNDUP FOR COLORADO
NATIONAL WEATHER SERVICE DENVER/BOULDER CO
1000 AM MDT SAT APR 22 2017

NOTE: "FAIR" INDICATES FEW OR NO CLOUDS BELOW 12000 FEET WITH NO
SIGNIFICANT WEATHER AND/OR OBSTRUCTIONS TO VISIBILITY.

COZ001>005-013-030-031-221700-
...NORTHWEST COLORADO...

CITY           SKY/WX    TMP DP  RH WIND       PRES   REMARKS
CRAIG          FAIR      42  28  57 NE5       30.30S
HAYDEN         FAIR      39  27  60 SE7       30.30S
MEEKER         FAIR      42  29  59 CALM      30.27F
MOUNT WERNER   NOT AVBL
STEAMBOAT SPGS FAIR      34  29  81 CALM      30.30S
WALDEN           N/A     27  25  93 SE3       30.32R VSB 1
$$

COZ006>008-011-221700-
...WEST CENTRAL VALLEYS...

CITY           SKY/WX    TMP DP  RH WIND       PRES   REMARKS
GRAND JUNCTION FAIR      51  24  34 VRB5      30.22F
MONTROSE       FAIR      47  23  38 MISG      30.26F
EAGLE          MOSUNNY   37  27  65 CALM      30.32S
RIFLE          FAIR      47  28  47 CALM      30.27S
DELTA          FAIR      49  24  37 CALM      30.25S
NUCLA          FAIR      46  19  34 W5        30.25F
$$

COZ017>023-064>068-221700-
...SOUTHWEST COLORADO...

CITY           SKY/WX    TMP DP  RH WIND       PRES   REMARKS
DURANGO        FAIR      48  15  26 VRB5      30.19F
CORTEZ         FAIR      48  18  30 E3        30.19F
PAGOSA SPRINGS FAIR      45   8  21 S7        30.21S
TELLURIDE      FAIR      39  14  35 W6        30.24S
WOLF CREEK PAS FAIR      27  10  50 CALM      30.33R
$$

COZ009-010-012-014-032>034-037-058>063-221700-
...CENTRAL COLORADO...

CITY           SKY/WX    TMP DP  RH WIND       PRES   REMARKS
ASPEN          FAIR      39  21  48 N6        30.25S
BUENA VISTA    FAIR      40  21  45 E5        30.27S
COPPER MTN     LGT SNOW  25  19  80 MISG      30.30R
BERTHOUD PASS  FLURRIES  14   3  62 NE3       30.30R
COTTONWOOD PAS FAIR      37  19  48 E7        30.29R
GUNNISON       FAIR      40  21  46 CALM      30.26S
KREMMLING      PTSUNNY   43  30  61 CALM      30.31S
LEADVILLE      FAIR      30  15  53 NW3       30.26S
MONARCH PASS   CLOUDY    23  16  74 E13       30.38S WCI  11
SALIDA         PTSUNNY   43  29  58 SE3       30.35S
SUNLIGHT       CLOUDY    23  21  93 MISG      30.33R
WILKERSON PASS CLOUDY   N/A N/A N/A CALM      30.33R
$$

COZ069>075-221700-
...SAN LUIS VALLEY/SANGRE DE CRISTO MOUNTAINS...

CITY           SKY/WX    TMP DP  RH WIND       PRES   REMARKS
ALAMOSA        FAIR      45  23  42 N5        30.23
LA VETA PASS   SNOW      32  30  93 N13G18    30.39R VSB 1/4 WCI  22
SAGUACHE       FAIR      45  18  33 S8        30.23S
$$

COZ035-036-038>040-221700-
...NORTHERN COLORADO FRONT RANGE...

CITY           SKY/WX    TMP DP  RH WIND       PRES   REMARKS
DENVER INTL AP CLOUDY    40  36  86 VRB3      30.30S
DMNS CITY PARK   N/A     43  37  80 N6G13     30.31S
AURORA         CLOUDY    38  38  99 CALM      30.31R
FRONT RANGE AP CLOUDY    41  37  87 S5        30.31S
ERIE MUNI ARPT CLOUDY    42  37  82 CALM      30.31R
BOULDER MUN AP CLOUDY    41  37  87 NE5       30.30S
CENTENNIAL     PTSUNNY   38  36  92 N6        30.30S
BROOMFIELD     NOT AVBL
FORT COLLINS   FAIR      40  36  86 CALM      30.32S
LONGMONT       CLOUDY    43  37  80 CALM      30.33S
$$

COZ041-046-047-076>085-087-088-221700-
...PIKES PEAK/PALMER DIVIDE AND SOUTHERN FOOTHILLS...

CITY           SKY/WX    TMP DP  RH WIND       PRES   REMARKS
COLO. SPRINGS  FLURRIES  37  33  85 SE3       30.32R
A. F. ACADEMY  FLURRIES  35  35  99 S3        30.30R
SCHRIEVER AFB  FLURRIES  35  34  95 S6        30.32R WCI  30
ELLICOTT       CLOUDY   N/A N/A N/A S6        30.30R
FALCON         LGT SNOW  34  33  94 S3        30.32R
FORT CARSON    LGT RAIN  38  33  82 S6        30.31R
LIMON          PTSUNNY   39  34  82 CALM      30.31R
MONUMENT HILL  LGT SNOW  32  32 100 NW8       30.31R WCI  25
TRINIDAD       LGT RAIN  38  34  85 SE3       30.31R
$$

COZ042>045-048>051-090-091-221700-
...NORTHEAST COLORADO...

CITY           SKY/WX    TMP DP  RH WIND       PRES   REMARKS
GREELEY ARPT   CLOUDY    45  38  76 VRB3      30.32F
AKRON          CLOUDY    43  36  76 CALM      30.31
BURLINGTON     NOT AVBL
WRAY           NOT AVBL
STERLING       PTSUNNY   46  37  71 CALM      30.30S
HOLYOKE        FAIR      54  37  54 CALM      30.32S
FORT MORGAN    PTSUNNY   48  36  63 SW9       30.32R
$$

COZ086-089-092>099-221700-
...SOUTHEAST COLORADO...

CITY           SKY/WX    TMP DP  RH WIND       PRES   REMARKS
PUEBLO         CLOUDY    43  36  76 E3        30.32R
LA JUNTA       CLOUDY    46  36  68 NW3       30.31
LAMAR          FAIR      48  35  60 NE9       30.30R
SPRINGFIELD      N/A     47  34  60 N8        30.29R
$$



USA.gov is the U.S. government's official web portal to all federal, state and local government web resources and services.